H1 CPF 2 NER 2022 5 14 9 134 01 glonass139 H2 1808601 9139 43687 2022 5 14 0 0 0 2022 5 17 23 45 0 900 1 1 0 0 0 1 H9 10 0 59713 0.00000 0 608178.011 -11097339.801 -22940759.583 10 0 59713 900.00000 0 3401611.164 -10619659.112 -22922978.769 10 0 59713 1800.00000 0 6192671.563 -10347796.662 -22459170.378 10 0 59713 2700.00000 0 8911989.859 -10281019.297 -21558381.350 10 0 59713 3600.00000 0 11492186.684 -10406497.765 -20238169.720 10 0 59713 4500.00000 0 13870447.669 -10699933.045 -18524259.919 10 0 59713 5400.00000 0 15990913.102 -11126683.490 -16450038.141 10 0 59713 6300.00000 0 17806783.131 -11643344.552 -14055897.708 10 0 59713 7200.00000 0 19282051.116 -12199713.671 -11388447.402 10 0 59713 8100.00000 0 20392793.515 -12741056.495 -8499598.456 10 0 59713 9000.00000 0 21127963.482 -13210577.980 -5445548.382 10 0 59713 9900.00000 0 21489655.998 -13551993.037 -2285682.034 10 0 59713 10800.00000 0 21492834.954 -13712087.382 918588.196 10 0 59713 11700.00000 0 21164535.283 -13643159.784 4105019.797 10 0 59713 12600.00000 0 20542575.189 -13305242.070 7211751.305 10 0 59713 13500.00000 0 19673834.200 -12668002.834 10178503.255 10 0 59713 14400.00000 0 18612170.699 -11712254.343 12947745.461 10 0 59713 15300.00000 0 17416067.493 -10430999.021 15465807.950 10 0 59713 16200.00000 0 16146105.002 -8829971.353 17683914.463 10 0 59713 17100.00000 0 14862368.348 -6927652.190 19559119.141 10 0 59713 18000.00000 0 13621896.959 -4754754.491 21055129.120 10 0 59713 18900.00000 0 12476283.039 -2353201.315 22142998.177 10 0 59713 19800.00000 0 11469518.616 225362.203 22801679.070 10 0 59713 20700.00000 0 10636180.369 2921462.064 23018424.833 10 0 59713 21600.00000 0 10000027.109 5670016.500 22789032.020 10 0 59713 22500.00000 0 9573067.703 8402794.295 22117921.665 10 0 59713 23400.00000 0 9355137.740 11051009.840 21018056.438 10 0 59713 24300.00000 0 9334002.235 13547948.884 19510695.338 10 0 59713 25200.00000 0 9485979.935 15831517.445 17624989.995 10 0 59713 26100.00000 0 9777063.202 17846609.166 15397429.530 10 0 59713 27000.00000 0 10164486.818 19547193.634 12871143.631 10 0 59713 27900.00000 0 10598680.191 20898039.331 10095076.203 10 0 59713 28800.00000 0 11025521.238 21875999.585 7123044.657 10 0 59713 29700.00000 0 11388797.215 22470807.895 4012702.208 10 0 59713 30600.00000 0 11632768.705 22685349.183 824422.743 10 0 59713 31500.00000 0 11704728.218 22535395.340 -2379870.249 10 0 59713 32400.00000 0 11557444.615 22048815.967 -5537907.930 10 0 59713 33300.00000 0 11151389.071 21264297.284 -8588289.779 10 0 59713 34200.00000 0 10456647.185 20229623.089 -11471682.478 10 0 59713 35100.00000 0 9454434.940 18999590.221 -14131980.046 10 0 59713 36000.00000 0 8138152.783 17633646.575 -16517401.963 10 0 59713 36900.00000 0 6513931.676 16193351.500 -18581507.208 10 0 59713 37800.00000 0 4600646.331 14739765.950 -20284103.955 10 0 59713 38700.00000 0 2429393.434 13330882.620 -21592036.849 10 0 59713 39600.00000 0 42455.286 12019204.593 -22479836.224 10 0 59713 40500.00000 0 -2508209.014 10849574.515 -22930216.558 10 0 59713 41400.00000 0 -5162882.832 9857345.621 -22934414.430 10 0 59713 42300.00000 0 -7856342.291 9066971.367 -22492359.416 10 0 59713 43200.00000 0 -10520344.323 8491072.588 -21612674.667 10 0 59713 44100.00000 0 -13086249.195 8130020.844 -20312507.202 10 0 59713 45000.00000 0 -15487668.392 7972054.774 -18617191.261 10 0 59713 45900.00000 0 -17663027.726 7993923.665 -16559751.345 10 0 59713 46800.00000 0 -19557939.018 8162030.122 -14180254.678 10 0 59713 47700.00000 0 -21127281.555 8434022.569 -11525025.908 10 0 59713 48600.00000 0 -22336906.981 8760769.302 -8645739.666 10 0 59713 49500.00000 0 -23164896.904 9088629.582 -5598408.968 10 0 59713 50400.00000 0 -23602321.311 9361924.709 -2442289.750 10 0 59713 51300.00000 0 -23653467.300 9525503.681 761276.490 10 0 59713 52200.00000 0 -23335529.680 9527294.064 3950058.926 10 0 59713 53100.00000 0 -22677777.876 9320729.588 7062148.520 10 0 59713 54000.00000 0 -21720235.645 8866951.487 10037160.067 10 0 59713 54900.00000 0 -20511930.172 8136690.232 12817401.692 10 0 59713 55800.00000 0 -19108785.195 7111748.127 15348989.050 10 0 59713 56700.00000 0 -17571247.284 5786020.170 17582883.057 10 0 59713 57600.00000 0 -15961745.141 4166010.019 19475831.700 10 0 59713 58500.00000 0 -14342088.275 2270819.102 20991198.530 10 0 59713 59400.00000 0 -12770913.451 131608.736 22099662.892 10 0 59713 60300.00000 0 -11301284.814 -2209443.132 22779779.395 10 0 59713 61200.00000 0 -9978546.968 -4700648.091 23018386.769 10 0 59713 62100.00000 0 -8838519.452 -7282715.021 22810858.997 10 0 59713 63000.00000 0 -7906106.820 -9890981.658 22161194.278 10 0 59713 63900.00000 0 -7194381.382 -12457878.803 21081940.264 10 0 59713 64800.00000 0 -6704176.052 -14915526.486 19593956.671 10 0 59713 65700.00000 0 -6424203.795 -17198355.750 17726019.265 10 0 59713 66600.00000 0 -6331698.402 -19245648.273 15514271.990 10 0 59713 67500.00000 0 -6393549.675 -21003889.196 13001536.767 10 0 59713 68400.00000 0 -6567885.468 -22428835.766 10236493.206 10 0 59713 69300.00000 0 -6806034.276 -23487215.729 7272743.138 10 0 59713 70200.00000 0 -7054785.832 -24157984.499 4167777.241 10 0 59713 71100.00000 0 -7258854.345 -24433088.217 981863.213 10 0 59713 72000.00000 0 -7363440.148 -24317700.246 -2223123.113 10 0 59713 72900.00000 0 -7316780.941 -23829920.719 -5384900.965 10 0 59713 73800.00000 0 -7072583.888 -22999951.278 -8441998.468 10 0 59713 74700.00000 0 -6592234.582 -21868779.379 -11334952.842 10 0 59713 75600.00000 0 -5846688.064 -20486427.332 -14007473.025 10 0 59713 76500.00000 0 -4817960.404 -18909839.669 -16407541.388 10 0 59713 77400.00000 0 -3500156.173 -17200497.906 -18488432.373 10 0 59713 78300.00000 0 -1899986.777 -15421863.179 -20209627.749 10 0 59713 79200.00000 0 -36756.080 -13636754.519 -21537610.253 10 0 59713 80100.00000 0 2058187.616 -11904773.169 -22446519.887 10 0 59713 81000.00000 0 4342511.657 -10279881.188 -22918660.023 10 0 59713 81900.00000 0 6764428.070 -8808235.944 -22944843.414 10 0 59713 82800.00000 0 9264628.455 -7526371.174 -22524571.403 10 0 59713 83700.00000 0 11778544.670 -6459800.477 -21666042.917 10 0 59713 84600.00000 0 14238841.449 -5622101.168 -20385993.070 10 0 59713 85500.00000 0 16578037.156 -5014516.133 -18709364.597 10 0 59714 0.00000 0 18731143.313 -4626089.345 -16668818.739 10 0 59714 900.00000 0 20638213.938 -4434327.943 -14304094.035 10 0 59714 1800.00000 0 22246695.373 -4406362.151 -11661228.525 10 0 59714 2700.00000 0 23513482.485 -4500552.037 -8791657.138 10 0 59714 3600.00000 0 24406592.556 -4668472.493 -5751204.888 10 0 59714 4500.00000 0 24906388.458 -4857190.990 -2598995.037 10 0 59714 5400.00000 0 25006300.369 -5011740.664 603705.785 10 0 59714 6300.00000 0 24713016.682 -5077683.012 3794682.436 10 0 59714 7200.00000 0 24046137.339 -5003651.066 6911982.161 10 0 59714 8100.00000 0 23037305.202 -4743764.793 9895117.619 10 0 59714 9000.00000 0 21728853.142 -4259816.280 12686238.481 10 0 59714 9900.00000 0 20172024.565 -3523132.223 15231248.790 10 0 59714 10800.00000 0 18424842.705 -2516034.983 17480848.887 10 0 59714 11700.00000 0 16549718.297 -1232840.572 19391482.316 10 0 59714 12600.00000 0 14610895.770 319648.549 20926170.226 10 0 59714 13500.00000 0 12671844.256 2122177.018 22055218.175 10 0 59714 14400.00000 0 10792701.542 4143595.690 22756782.756 10 0 59714 15300.00000 0 9027876.555 6341923.922 23017288.027 10 0 59714 16200.00000 0 7423909.072 8665871.926 22831684.515 10 0 59714 17100.00000 0 6017674.468 11056761.284 22203546.246 10 0 59714 18000.00000 0 4835007.131 13450765.202 21145004.047 10 0 59714 18900.00000 0 3889798.801 15781376.980 19676516.154 10 0 59714 19800.00000 0 3183608.517 17982005.599 17826479.921 10 0 59714 20700.00000 0 2705799.929 19988591.638 15630691.296 10 0 59714 21600.00000 0 2434199.763 21742135.721 13131661.415 10 0 59714 22500.00000 0 2336249.689 23191034.706 10377802.444 10 0 59714 23400.00000 0 2370603.163 24293128.378 7422497.418 10 0 59714 24300.00000 0 2489100.019 25017371.024 4323071.262 10 0 59714 25200.00000 0 2639035.524 25345057.544 1139682.328 10 0 59714 26100.00000 0 2765627.888 25270552.056 -2065844.219 10 0 59714 27000.00000 0 2814579.514 24801487.758 -5231218.494 10 0 59714 27900.00000 0 2734622.932 23958428.869 -8294899.787 10 0 59714 28800.00000 0 2479942.786 22774008.230 -11197298.059 10 0 59714 29700.00000 0 2012370.125 21291576.302 -13881938.999 10 0 59714 30600.00000 0 1303254.820 19563417.988 -16296569.330 10 0 59714 31500.00000 0 334935.411 17648612.090 -18394180.079 10 0 59714 32400.00000 0 -898257.289 15610623.277 -20133927.414 10 0 59714 33300.00000 0 -2389506.794 13514727.711 -21481932.704 10 0 59714 34200.00000 0 -4119550.061 11425380.458 -22411945.927 10 0 59714 35100.00000 0 -6057248.932 9403635.082 -22905859.420 10 0 59714 36000.00000 0 -8160671.227 7504723.461 -22954061.938 10 0 59714 36900.00000 0 -10378637.166 5775896.987 -22555626.147 10 0 59714 37800.00000 0 -12652667.265 4254619.121 -21718325.975 10 0 59714 38700.00000 0 -14919250.812 2967184.274 -20458483.512 10 0 59714 39600.00000 0 -17112340.390 1927820.068 -18800648.502 10 0 59714 40500.00000 0 -19165968.381 1138309.427 -16777116.724 10 0 59714 41400.00000 0 -21016876.044 588147.028 -14427296.664 10 0 59714 42300.00000 0 -22607045.177 255222.076 -11796937.087 10 0 59714 43200.00000 0 -23886026.401 106997.027 -8937230.764 10 0 59714 44100.00000 0 -24812966.548 102130.975 -5903812.177 10 0 59714 45000.00000 0 -25358250.396 192477.618 -2755669.339 10 0 59714 45900.00000 0 -25504688.197 325371.898 446008.570 10 0 59714 46800.00000 0 -25248199.847 446107.340 3639024.664 10 0 59714 47700.00000 0 -24597967.733 500498.235 6761385.047 10 0 59714 48600.00000 0 -23576052.795 437417.535 9752502.791 10 0 59714 49500.00000 0 -22216490.815 211202.591 12554371.569 10 0 59714 50400.00000 0 -20563907.666 -216173.182 15112686.173 10 0 59714 51300.00000 0 -18671712.228 -873254.505 17377888.549 10 0 59714 52200.00000 0 -16599942.974 -1777662.141 19306119.733 10 0 59714 53100.00000 0 -14412858.281 -2935115.223 20860060.081 10 0 59714 54000.00000 0 -12176370.707 -4338959.280 22009642.606 10 0 59714 54900.00000 0 -9955431.439 -5970220.201 22732626.719 10 0 59714 55800.00000 0 -7811472.878 -7798182.512 23015022.220 10 0 59714 56700.00000 0 -5800014.461 -9781468.849 22851356.190 10 0 59714 57600.00000 0 -3968529.942 -11869576.845 22244778.100 10 0 59714 58500.00000 0 -2354663.458 -14004810.773 21207001.210 10 0 59714 59400.00000 0 -984867.319 -16124529.053 19758081.201 10 0 59714 60300.00000 0 126482.901 -18163615.511 17926035.633 10 0 59714 61200.00000 0 977459.896 -20057072.755 15746310.773 10 0 59714 62100.00000 0 1578427.962 -21742630.627 13261105.034 10 0 59714 63000.00000 0 1951365.103 -23163261.655 10518560.950 10 0 59714 63900.00000 0 2128692.570 -24269498.677 7571840.392 10 0 59714 64800.00000 0 2151661.217 -25021457.658 4478100.012 10 0 59714 65700.00000 0 2068362.746 -25390480.559 1297386.205 10 0 59714 66600.00000 0 1931449.950 -25360328.587 -1908529.198 10 0 59714 67500.00000 0 1795662.634 -24927874.891 -5077349.883 10 0 59714 68400.00000 0 1715264.412 -24103266.570 -8147469.011 10 0 59714 69300.00000 0 1741499.617 -22909548.242 -11059171.956 10 0 59714 70200.00000 0 1920178.984 -21381762.144 -13755803.799 10 0 59714 71100.00000 0 2289497.493 -19565561.863 -16184878.158 10 0 59714 72000.00000 0 2878177.981 -17515397.468 -18299105.039 10 0 59714 72900.00000 0 3704020.441 -15292347.887 -20057317.179 10 0 59714 73800.00000 0 4772919.693 -12961691.247 -21425276.460 10 0 59714 74700.00000 0 6078394.287 -10590314.956 -22376344.349 10 0 59714 75600.00000 0 7601647.799 -8244073.856 -22892003.256 10 0 59714 76500.00000 0 9312161.211 -5985206.842 -22962218.633 10 0 59714 77400.00000 0 11168792.489 -3869919.796 -22585634.732 10 0 59714 78300.00000 0 13121338.099 -1946235.436 -21769600.338 10 0 59714 79200.00000 0 15112491.650 -252199.341 -20530023.969 10 0 59714 80100.00000 0 17080117.936 1185483.604 -18891061.435 10 0 59714 81000.00000 0 18959747.291 2352326.388 -16884641.873 10 0 59714 81900.00000 0 20687185.852 3246415.295 -14549841.565 10 0 59714 82800.00000 0 22201132.128 3878230.112 -11932117.942 10 0 59714 83700.00000 0 23445690.022 4269938.393 -9082418.934 10 0 59714 84600.00000 0 24372672.856 4454195.294 -6056185.420 10 0 59714 85500.00000 0 24943601.479 4472501.235 -2912266.753 10 0 59715 0.00000 0 25131312.666 4373188.486 288228.674 10 0 59715 900.00000 0 24921110.666 4209123.184 3483126.536 10 0 59715 1800.00000 0 24311413.738 4035221.356 6610395.186 10 0 59715 2700.00000 0 23313869.528 3905884.812 9609351.606 10 0 59715 3600.00000 0 21952934.738 3872466.116 12421836.719 10 0 59715 4500.00000 0 20264937.541 3980870.110 14993338.957 10 0 59715 5400.00000 0 18296662.519 4269393.384 17274044.372 10 0 59715 6300.00000 0 16103517.596 4766892.817 19219793.576 10 0 59715 7200.00000 0 13747359.607 5491360.156 20792927.792 10 0 59715 8100.00000 0 11294068.844 6448962.551 21963008.718 10 0 59715 9000.00000 0 8810972.869 7633589.442 22707399.365 10 0 59715 9900.00000 0 6364225.846 9026925.116 23011695.597 10 0 59715 10800.00000 0 4016251.005 10599044.566 22870000.895 10 0 59715 11700.00000 0 1823351.021 12309508.730 22285039.504 10 0 59715 12600.00000 0 -166415.831 14108914.540 21268105.962 10 0 59715 13500.00000 0 -1915006.970 15940836.480 19838851.728 10 0 59715 14400.00000 0 -3395741.889 17744080.108 18024912.451 10 0 59715 15300.00000 0 -4594168.585 19455154.764 15861382.221 10 0 59715 16200.00000 0 -5508414.742 21010863.395 13390143.905 10 0 59715 17100.00000 0 -6149009.650 22350902.100 10659067.369 10 0 59715 18000.00000 0 -6538184.613 23420361.018 7721090.124 10 0 59715 18900.00000 0 -6708681.545 24172021.860 4633197.293 10 0 59715 19800.00000 0 -6702120.047 24568355.367 1455320.050 10 0 59715 20700.00000 0 -6566991.961 24583134.054 -1750826.308 10 0 59715 21600.00000 0 -6356368.387 24202591.521 -4922942.102 10 0 59715 22500.00000 0 -6125416.532 23426078.404 -7999357.221 10 0 59715 23400.00000 0 -5928832.058 22266186.178 -10920235.050 10 0 59715 24300.00000 0 -5818296.409 20748332.438 -13628742.336 10 0 59715 25200.00000 0 -5840067.759 18909824.035 -16072161.531 10 0 59715 26100.00000 0 -6032808.587 16798436.575 -18202923.203 10 0 59715 27000.00000 0 -6425742.983 14470569.237 -19979537.914 10 0 59715 27900.00000 0 -7037222.770 11989051.733 -21367408.988 10 0 59715 28800.00000 0 -7873764.169 9420694.989 -22339510.025 10 0 59715 29700.00000 0 -8929596.792 6833687.731 -22876913.881 10 0 59715 30600.00000 0 -10186745.021 4294947.536 -22969162.763 10 0 59715 31500.00000 0 -11615639.220 1867536.830 -22614472.255 10 0 59715 32400.00000 0 -13176231.871 -391748.745 -21819765.390 10 0 59715 33300.00000 0 -14819572.295 -2434519.431 -20600536.122 10 0 59715 34200.00000 0 -16489774.161 -4222569.275 -18980544.942 10 0 59715 35100.00000 0 -18126293.364 -5729219.590 -16991352.605 10 0 59715 36000.00000 0 -19666420.630 -6940172.985 -14671701.117 10 0 59715 36900.00000 0 -21047883.924 -7853843.572 -12066754.228 10 0 59715 37800.00000 0 -22211451.203 -8481151.214 -9227212.511 10 0 59715 38700.00000 0 -23103423.804 -8844790.247 -6208320.594 10 0 59715 39600.00000 0 -23677915.313 -8978005.225 -3068786.434 10 0 59715 40500.00000 0 -23898820.079 -8922927.198 130365.680 10 0 59715 41400.00000 0 -23741388.408 -8728542.393 3326985.573 10 0 59715 42300.00000 0 -23193342.442 -8448380.603 6459007.170 10 0 59715 43200.00000 0 -22255486.269 -8138022.219 9465654.061 10 0 59715 44100.00000 0 -20941784.878 -7852530.073 12288617.035 10 0 59715 45000.00000 0 -19278909.130 -7643915.122 14873180.648 10 0 59715 45900.00000 0 -17305266.194 -7558743.182 17169277.343 10 0 59715 46800.00000 0 -15069556.133 -7635983.565 19132449.324 10 0 59715 47700.00000 0 -12628914.955 -7905190.022 20724700.372 10 0 59715 48600.00000 0 -10046721.143 -8385090.228 21915222.180 10 0 59715 49500.00000 0 -7390156.280 -9082642.857 22680982.278 10 0 59715 50400.00000 0 -4727620.221 -9992601.766 23007163.116 10 0 59715 51300.00000 0 -2126106.893 -11097605.795 22887444.703 10 0 59715 52200.00000 0 351351.897 -12368791.002 22324125.852 10 0 59715 53100.00000 0 2648069.964 -13766900.531 21328081.823 10 0 59715 54000.00000 0 4715820.238 -15243846.852 19918559.011 10 0 59715 54900.00000 0 6516591.818 -16744662.305 18122810.018 10 0 59715 55800.00000 0 8023918.652 -18209757.637 15975575.321 10 0 59715 56700.00000 0 9223725.490 -19577395.203 13518420.515 10 0 59715 57600.00000 0 10114656.502 -20786274.207 10798940.776 10 0 59715 58500.00000 0 10707873.265 -21778120.169 7869846.946 10 0 59715 59400.00000 0 11026330.917 -22500170.173 4787950.069 10 0 59715 60300.00000 0 11103563.122 -22907449.248 1613063.357 10 0 59715 61200.00000 0 10982027.116 -22964741.513 -1593157.299 10 0 59715 62100.00000 0 10711078.903 -22648172.193 -4768411.784 10 0 59715 63000.00000 0 10344664.430 -21946332.647 -7850969.651 10 0 59715 63900.00000 0 9938824.821 -20860899.678 -10780875.177 10 0 59715 64800.00000 0 9549121.860 -19406721.656 -13501119.567 10 0 59715 65700.00000 0 9228093.434 -17611366.441 -15958756.758 10 0 59715 66600.00000 0 9022847.506 -15514148.953 -18105940.344 10 0 59715 67500.00000 0 8972897.340 -13164678.160 -19900860.930 10 0 59715 68400.00000 0 9108330.473 -10620983.570 -21308565.197 10 0 59715 69300.00000 0 9448389.737 -7947299.093 -22301640.435 10 0 59715 70200.00000 0 10000527.093 -5211596.478 -22860751.093 10 0 59715 71100.00000 0 10759971.007 -2482970.918 -22975016.873 10 0 59715 72000.00000 0 11709826.240 171012.278 -22642225.012 10 0 59715 72900.00000 0 12821702.415 2686899.697 -21868872.697 10 0 59715 73800.00000 0 14056845.286 5007753.310 -20670038.838 10 0 59715 74700.00000 0 15367723.326 7085275.693 -19069087.739 10 0 59715 75600.00000 0 16700002.945 8881569.144 -17097210.521 10 0 59715 76500.00000 0 17994829.141 10370456.230 -14792813.267 10 0 59715 77400.00000 0 19191315.323 11538307.711 -12200764.021 10 0 59715 78300.00000 0 20229137.205 12384344.767 -9371513.575 10 0 59715 79200.00000 0 21051121.157 12920404.460 -6360107.516 10 0 59715 80100.00000 0 21605717.587 13170180.127 -3225109.353 10 0 59715 81000.00000 0 21849254.836 13167970.496 -27456.262 10 0 59715 81900.00000 0 21747878.398 12956992.095 3170729.714 10 0 59715 82800.00000 0 21279093.829 12587327.788 6307351.150 10 0 59715 83700.00000 0 20432848.422 12113599.439 9321541.510 10 0 59715 84600.00000 0 19212106.360 11592464.033 12154844.529 10 0 59715 85500.00000 0 17632893.435 11080039.619 14752343.695 10 0 59716 0.00000 0 15723809.736 10629370.041 17063720.170 10 0 59716 900.00000 0 13525029.680 10288035.104 19044220.379 10 0 59716 1800.00000 0 11086833.707 10096007.065 20655512.332 10 0 59716 2700.00000 0 8467728.972 10083842.409 21866419.294 10 0 59716 3600.00000 0 5732239.067 10271284.949 22653514.529 10 0 59716 4500.00000 0 2948452.678 10666338.265 23001567.908 10 0 59716 5400.00000 0 185431.847 11264846.158 22903836.385 10 0 59716 6300.00000 0 -2489414.180 12050598.822 22362193.281 10 0 59716 7200.00000 0 -5012882.065 12995960.649 21387094.032 10 0 59716 8100.00000 0 -7328350.158 14062994.088 19997378.896 10 0 59716 9000.00000 0 -9387879.836 15205033.470 18219915.851 10 0 59716 9900.00000 0 -11153956.240 16368643.908 16089089.728 10 0 59716 10800.00000 0 -12600797.071 17495884.280 13646146.420 10 0 59716 11700.00000 0 -13715175.632 18526780.319 10938403.669 10 0 59716 12600.00000 0 -14496724.174 19401904.624 8018342.709 10 0 59716 13500.00000 0 -14957705.224 20064955.496 4942597.412 10 0 59716 14400.00000 0 -15122260.619 20465226.031 1770859.878 10 0 59716 15300.00000 0 -15025169.935 20559858.963 -1435276.554 10 0 59716 16200.00000 0 -14710170.730 20315791.390 -4613514.443 10 0 59716 17100.00000 0 -14227911.702 19711306.157 -7702066.005 10 0 59716 18000.00000 0 -13633625.497 18737123.098 -10640859.268 10 0 59716 18900.00000 0 -12984620.044 17396982.602 -13372712.528 10 0 59716 19800.00000 0 -12337695.072 15707695.310 -15844453.578 10 0 59716 20700.00000 0 -11746593.773 13698654.442 -18007961.101 10 0 59716 21600.00000 0 -11259598.097 11410829.842 -19821107.467 10 0 59716 22500.00000 0 -10917370.062 8895284.785 -21248584.101 10 0 59716 23400.00000 0 -10751130.979 6211276.780 -22262593.018 10 0 59716 24300.00000 0 -10781256.067 3424021.036 -22843390.963 10 0 59716 25200.00000 0 -11016344.291 602209.428 -22979675.479 10 0 59716 26100.00000 0 -11452803.017 -2184611.910 -22668805.437 10 0 59716 27000.00000 0 -12074965.255 -4868697.424 -21916851.784 10 0 59716 27900.00000 0 -12855734.685 -7386679.208 -20738477.592 10 0 59716 28800.00000 0 -13757731.264 -9681959.270 -19156649.798 10 0 59716 29700.00000 0 -14734889.001 -11706817.883 -17202188.337 10 0 59716 30600.00000 0 -15734438.276 -13424150.822 -14913161.483 10 0 59716 31500.00000 0 -16699188.771 -14808763.896 -12334139.414 10 0 59716 32400.00000 0 -17570016.299 -15848171.906 -9515320.792 10 0 59716 33300.00000 0 -18288448.072 -16542869.972 -6511549.687 10 0 59716 34200.00000 0 -18799236.880 -16906067.524 -3381242.600 10 0 59716 35100.00000 0 -19052814.978 -16962897.849 -185246.987 10 0 59716 36000.00000 0 -19007523.842 -16749138.304 3014345.860 10 0 59716 36900.00000 0 -18631525.480 -16309496.850 6155409.812 10 0 59716 37800.00000 0 -17904314.660 -15695538.637 9176990.844 10 0 59716 38700.00000 0 -16817768.327 -14963341.338 12020488.203 10 0 59716 39600.00000 0 -15376688.126 -14170978.931 14630786.817 10 0 59716 40500.00000 0 -13598813.263 -13375940.483 16957319.311 10 0 59716 41400.00000 0 -11514303.069 -12632592.714 18955037.667 10 0 59716 42300.00000 0 -9164710.700 -11989792.847 20585276.484 10 0 59716 43200.00000 0 -6601490.297 -11488751.537 21816492.212 10 0 59716 44100.00000 0 -3884098.975 -11161234.921 22624865.152 10 0 59716 45000.00000 0 -1077771.630 -11028180.488 22994753.563 10 0 59716 45900.00000 0 1748940.406 -11098784.182 22918991.996 10 0 59716 46800.00000 0 4526766.232 -11370096.575 22399028.614 10 0 59716 47700.00000 0 7188341.603 -11827144.927 21444899.060 10 0 59716 48600.00000 0 9670757.258 -12443576.212 20075037.207 10 0 59716 49500.00000 0 11917925.138 -13182794.714 18315925.848 10 0 59716 50400.00000 0 13882665.451 -13999547.192 16201593.284 10 0 59716 51300.00000 0 15528428.895 -14841889.992 13772964.462 10 0 59716 52200.00000 0 16830583.084 -15653456.321 11077078.063 10 0 59716 53100.00000 0 17777209.903 -16375929.043 8166183.662 10 0 59716 54000.00000 0 18369380.772 -16951615.352 5096735.527 10 0 59716 54900.00000 0 18620898.347 -17326014.912 1928301.858 10 0 59716 55800.00000 0 18557515.509 -17450272.841 -1277589.630 10 0 59716 56700.00000 0 18215664.474 -17283413.319 -4458647.414 10 0 59716 57600.00000 0 17640749.654 -16794258.416 -7553029.697 10 0 59716 58500.00000 0 16885076.412 -15962949.774 -10500551.549 10 0 59716 59400.00000 0 16005503.463 -14782007.369 -13243861.560 10 0 59716 60300.00000 0 15060918.503 -13256878.969 -15729564.398 10 0 59716 61200.00000 0 14109644.209 -11405955.511 -17909266.648 10 0 59716 62100.00000 0 13206884.802 -9260050.160 -19740524.978 10 0 59716 63000.00000 0 12402321.519 -6861361.411 -21187677.769 10 0 59716 63900.00000 0 11737959.044 -4261962.579 -22222543.615 10 0 59716 64800.00000 0 11246314.159 -1521879.813 -22824972.987 10 0 59716 65700.00000 0 10949023.270 1293161.852 -22983242.281 10 0 59716 66600.00000 0 10855927.652 4114230.863 -22694282.563 10 0 59716 67500.00000 0 10964674.939 6871816.545 -21963738.665 10 0 59716 68400.00000 0 11260853.464 9498482.400 -20805857.511 10 0 59716 69300.00000 0 11718653.506 11931435.084 -19243207.953 10 0 59716 70200.00000 0 12302027.102 14114902.398 -17306237.598 10 0 59716 71100.00000 0 12966297.002 16002221.731 -15032675.382 10 0 59716 72000.00000 0 13660146.237 17557552.389 -12466791.705 10 0 59716 72900.00000 0 14327903.631 18757141.160 -9658530.784 10 0 59716 73800.00000 0 14912028.079 19590089.485 -6662532.508 10 0 59716 74700.00000 0 15355685.928 20058591.242 -3537063.409 10 0 59716 75600.00000 0 15605311.850 20177632.773 -342878.043 10 0 59716 76500.00000 0 15613044.579 19974169.558 2857966.347 10 0 59716 77400.00000 0 15338934.154 19485815.712 6003318.243 10 0 59716 78300.00000 0 14752827.289 18759103.142 9032139.356 10 0 59716 79200.00000 0 13835851.185 17847384.974 11885687.522 10 0 59716 80100.00000 0 12581433.207 16808472.537 14508651.962 10 0 59716 81000.00000 0 10995813.457 15702106.017 16850219.180 10 0 59716 81900.00000 0 9098028.561 14587365.384 18865049.471 10 0 59716 82800.00000 0 6919367.060 13520130.218 20514145.876 10 0 59716 83700.00000 0 4502318.642 12550694.560 21765599.822 10 0 59716 84600.00000 0 1899060.170 11721636.002 22595200.131 10 0 59716 85500.00000 0 -830459.410 11066027.441 22986894.602 99